Regional Weather Roundup
Issued by NWS Charleston, SC

Current Version | Previous Version | Text Only | Print | Product List | Glossary Off
Versions: 1 2 3 4 5 6 7 8 9 10 11 12 13 14 15 16 17 18 19 20 21 22 23 24 25 26 27 28 29 30 31 32 33 34 35 36 37 38 39 40 41 42 43 44 45 46 47 48 49 50

000
ASUS42 KCHS 020226
RWRCHS

REGIONAL WEATHER ROUNDUP
NATIONAL WEATHER SERVICE CHARLESTON SC
900 PM EST SUN MAR 01 2015

NOTE: "FAIR" INDICATES FEW OR NO CLOUDS BELOW 12,000 FEET WITH NO
SIGNIFICANT WEATHER AND/OR OBSTRUCTIONS TO VISIBILITY.

NOT ALL STATIONS ARE QUALITY CONTROLLED BY THE NATIONAL
WEATHER SERVICE. USE DATA WITH CAUTION...ESPECIALLY
DEWPOINT OBSERVATIONS.

SCZ027-030-031-034>040-042>050-020300-
...SOUTHEAST SOUTH CAROLINA...

CITY           SKY/WX    TMP DP  RH WIND       PRES   REMARKS
N CHARLESTON   FOG       43  43 100 N7        30.40S VSB 1/2
WATERFRONT PRK   N/A     45 N/A N/A N7          N/A
MOUNT PLEASANT LGT RAIN  45  43  93 NW3       30.39F
PINOPOLIS        N/A     43  43 100 N7        30.34
MONCKS CORNER  CLOUDY    43  41  93 CALM      30.39F FOG
SUMMERVILLE    CLOUDY    43  43 100 CALM      30.41S FOG
BEAUFORT MCAS  CLOUDY    46  44  93 N6        30.40S
BEAUFORT ARPT  CLOUDY    45  45 100 CALM      30.39S
HILTON HEAD IS CLOUDY    46  46 100 NW7       30.41R FOG
WALTERBORO     CLOUDY    45  45 100 NW3       30.41S FOG
ALLENDALE      CLOUDY    45  43  93 CALM      30.40F FOG

...SOUTHERN MIDLANDS AND PEE DEE...

CITY           SKY/WX    TMP DP  RH WIND       PRES   REMARKS
GEORGETOWN     NOT AVBL
KINGSTREE      NOT AVBL
ORANGEBURG     CLOUDY    42  39  89 CALM      30.40F FOG
BARNWELL       CLOUDY    45  45 100 CALM      30.40F FOG
AIKEN          CLOUDY    41  41 100 S5        30.40F FOG
MANNING        CLOUDY   N/A N/A N/A CALM      30.40S FOG
COLUMBIA       CLOUDY    42  40  92 CALM      30.38F
SUMTER         CLOUDY    41  39  93 S5        30.37F
FLORENCE       CLOUDY    40  38  93 S5        30.37F FOG     WCI  37
MYRTLE BEACH   CLOUDY    43  39  87 NW9       30.41F
N MYRTLE BEACH CLOUDY    42  40  92 N5        30.36F

$$

GAZ063-065-086>088-099>101-113>116-118-119-134>141-150-020300-
...SOUTHEAST GEORGIA...

CITY           SKY/WX    TMP DP  RH WIND       PRES   REMARKS
SAVANNAH ARPT  CLOUDY    47  45  93 NW6       30.41R FOG
HUNTER AAF     CLOUDY    48  48 100 VRB2      30.38R
FORT STEWART   CLOUDY    48  46  93 NW3       30.39R
STATESBORO     CLOUDY    45  45 100 CALM      30.40F FOG
SYLVANIA       CLOUDY    44  44 100 N3        30.41F FOG
CLAXTON        CLOUDY    46  46 100 CALM      30.41S

...CSRA...CENTRAL AND FAR SOUTHEAST GEORGIA...

CITY           SKY/WX    TMP DP  RH WIND       PRES   REMARKS
THOMSON        CLOUDY    43  43 100 S3        30.41F
AUGUSTA-BUSH   CLOUDY    42  41  96 S5        30.40F FOG
AUGUSTA-DANIEL CLOUDY    43  41  93 S5        30.38F FOG
SWAINSBORO     FOG       45  45 100 CALM      30.41F VSB 3/4
VIDALIA        CLOUDY    46  46 100 N5        30.41S
EASTMAN        CLOUDY    46  46 100 E3        30.44S FOG
HAZLEHURST     CLOUDY    50  50 100 N3        30.40S FOG
ALMA           CLOUDY    50  49  96 CALM      30.40S FOG
WAYCROSS       CLOUDY    57  56  96 N6        30.39S FOG
JESUP          CLOUDY    54  52  94 N3        30.40S
BAXLEY         CLOUDY    52  50  93 CALM      30.40S FOG
BRUNSWICK      CLOUDY    54  52  94 CALM      30.40R VSB 3/4
SAINT SIMONS   CLOUDY    51  51 100 CALM      30.39R FOG

$$

SCZ027-028-034-036>038-045-046-048>050-GAZ119-141-020300-
...LAKE AND SUPPLEMENTAL COASTAL OBSERVATIONS...

STATION/POSITION TIME  TEMP    WIND        PRES    WAVE   SWELL
                       AIR SEA DIR/SP/G            HT/PER HT/PER/DIR
                 (UTC) (F)     (DEG/KT/KT) (MB)    (FT/S) (FT/S/D)
UPR LAKE MARION  NOT AVBL
WINYAH BAY       0145   42     310/  5     1028.0S
LAKE MURRAY      0200   42     180/  5/  7 1027.8F
ACE BASIN NERRS  NOT AVBL
FORT PULASKI     0100   48 48  330/  5/  6 1029.6
SAPELO ISLAND    0200   51      10/  5     1029.0S

$$

ANZ835-935-AMZ111-154-330-350-352-354-370-450-454-472-020300-
...C-MAN AND BUOY OBSERVATIONS...

STATION/POSITION TIME  TEMP    WIND        PRES    WAVE   SWELL
                       AIR SEA DIR/SP/G            HT/PER HT/PER/DIR
                 (UTC) (F)     (DEG/KT/KT) (MB)    (FT/S) (FT/S/D)
BUOY 41004       0150   54 68  350/ 10/ 14 1028.2S   6/ 9   5/ 9
BUOY 41008       0150   50 53   20/ 12/ 14 1028.4F   4/ 9   3/ 90/ 9
FOLLY BEACH CMAN 0200   44     340/  5/  7 1029.4S
CAPERS NEARSHORE NOT AVBL
FRIPP NEARSHORE  0100   46     350/ 10/ 12 1028.1R


STATION/POSITION TIME  TEMP    WIND        PRES    WAVE   SWELL
                       AIR SEA DIR/SP/G            HT/PER HT/PER/DIR
                 (UTC) (F)     (DEG/KT/KT) (MB)    (FT/S) (FT/S/D)
5E ST. MARYS GA  0121      52                N/A     5/10   2/ 90/11
FRYING PAN BUOY  0150   54 62  330/ 10/ 12 1028.4R   6/ 6   7/130/ 6
BUOY 41025       NOT AVBL
CAPE LOOKOUT NC  0200   51     340/  6/  7 1027.2R
BUOY 41002       0150   70 72  160/ 16/ 19 1029.4R   8/ 8   5/100/ 8
BUOY 41010       0120   72 75  110/ 14/ 16 1027.2R
ST AUGUSTINE FL  0200   52     360/ 13/ 14 1028.5R


$$


USA.gov is the U.S. government's official web portal to all federal, state and local government web resources and services.